Snowfall_Accumulation
0.0 0.0 0.0 0.0 0.0 0.0 0.0 0.0 0.0 0.0 0.0 0.0 0.0 0.0 0.0 0.0 0.0 0.0 0.0 0.0 0.0 0.0 0.0 0.0 0.0 0.0 0.0 0.0 0.0 0.0 1.0 3.5 1.7 0.6 0.0 0.0 0.0 0.0 0.0 0.0 0.0 0.0 0.0 0.0 0.0
0.0 0.0 0.0 0.0 0.0 0.0 0.0 0.0 0.0 0.0 0.0 0.0 0.0 0.0 0.0 0.0 0.0 0.0 0.0 0.0 0.0 0.0 0.0 0.0 0.0 0.0 0.0 0.0 0.0 0.0 1.4 0.0 0.0 0.0 0.0 0.0 0.0 0.0 0.0 0.0 0.0 0.0 0.0 0.0 0.0
0.0 0.0 0.0 0.0 0.0 0.0 0.0 0.0 0.0 0.0 0.0 0.0 0.0 0.0 0.0 0.0 0.0 0.0 0.0 0.0 0.0 0.0 0.0 0.0 0.0 0.0 0.0 0.0 0.0 0.0 0.7 0.0 0.0 0.0 0.0 0.0 0.0 0.0 0.0 0.0 0.0 0.0 0.0 0.0 0.0
0.0 0.0 0.0 0.0 0.0 0.0 0.0 0.0 0.0 0.0 0.0 0.0 0.0 0.0 0.0 0.0 0.0 0.0 0.0 0.0 0.0 0.0 0.0 0.0 0.0 0.0 0.1 0.3 0.0 0.8 0.0 0.0 0.0 0.0 0.0 0.0 0.0 0.0 0.0 0.0 0.0 0.0 0.0 0.0 0.0
0.0 0.0 0.0 0.0 0.0 0.0 0.0 0.0 0.0 0.0 0.0 0.0 0.0 0.0 0.0 0.0 0.0 0.0 0.0 0.0 0.0 0.0 0.0 0.0 0.0 0.0 0.9 0.5 0.0 0.1 0.0 0.0 0.0 0.0 0.0 0.0 0.0 0.0 0.0 0.0 0.0 0.0 0.0 0.0 0.0
0.0 0.0 0.0 0.0 0.0 0.0 0.0 0.0 0.0 0.0 0.0 0.0 0.0 0.0 0.0 0.1 0.0 0.0 0.0 0.0 0.0 0.0 0.0 0.0 0.0 0.0 0.0 1.1 1.3 0.0 0.0 0.0 0.0 0.0 0.0 0.0 0.0 0.0 0.0 0.0 0.0 0.0 0.0 0.0 0.0
0.0 0.0 0.0 0.0 0.0 0.0 0.0 0.0 0.0 0.0 0.0 0.0 0.0 0.0 0.0 0.0 0.0 0.0 0.0 0.0 0.0 0.0 0.0 0.0 0.0 0.0 0.0 0.9 0.0 0.0 0.6 0.0 0.0 0.0 0.0 0.0 0.0 0.1 0.0 0.0 0.0 0.0 0.0 0.0 0.0
0.0 0.0 0.0 0.0 0.0 0.0 0.0 0.0 0.0 0.0 0.0 0.0 0.0 0.0 0.0 0.0 0.0 0.0 0.0 0.0 0.0 0.0 0.0 0.0 0.0 0.0 0.0 0.0 0.0 0.6 0.0 1.9 0.0 0.0 0.0 0.0 1.8 0.1 0.0 0.0 0.0 0.0 0.0 0.0 0.0
0.0 0.0 0.0 0.0 0.0 0.0 0.0 0.0 0.0 0.0 0.0 0.0 0.0 0.0 0.0 0.0 0.0 0.0 0.0 0.0 0.0 0.0 0.0 0.0 0.0 0.0 0.0 0.7 0.6 0.9 1.8 0.5 0.6 0.0 0.0 0.0 1.8 0.3 0.0 0.3 0.1 0.0 0.0 0.0 0.0
0.0 0.0 0.0 0.0 0.0 0.0 0.0 0.0 0.0 0.0 0.0 0.0 0.0 0.1 0.0 0.0 0.0 0.0 0.0 0.0 0.0 0.0 0.0 0.0 0.0 1.5 0.5 2.7 4.9 0.4 1.2 0.4 0.6 0.0 0.0 0.0 0.5 0.8 0.2 2.0 0.9 0.0 0.0 0.4 0.0
0.0 0.0 0.0 0.0 0.0 0.0 0.0 0.0 0.0 0.0 0.0 0.0 0.0 0.0 0.0 0.0 0.0 0.0 0.0 0.0 0.0 0.0 0.3 0.1 2.8 3.3 1.9 0.4 0.9 0.4 1.2 1.2 0.3 0.9 1.2 1.5 0.2 2.1 1.6 2.1 2.1 0.4 0.1 0.3 0.0
0.0 0.0 0.0 0.0 0.0 0.0 0.0 0.0 0.0 0.0 1.0 0.0 0.0 0.0 0.0 0.0 0.0 0.0 0.0 0.0 0.0 0.3 0.1 0.8 0.1 0.0 0.0 0.1 0.9 0.9 1.0 0.7 0.0 0.0 0.0 1.2 1.4 3.3 2.7 5.6 5.2 2.0 0.6 0.2 0.0
0.0 0.0 0.0 0.0 0.0 0.0 0.0 0.0 0.0 0.0 4.2 0.0 0.0 0.0 0.0 0.0 0.0 0.0 0.0 0.0 0.1 0.5 0.3 1.1 0.0 0.0 0.2 1.9 4.0 0.3 0.4 0.1 0.0 0.0 0.1 1.1 3.1 5.4 3.8 4.0 3.1 1.0 0.6 0.3 0.1
0.0 0.0 0.0 0.0 0.0 0.0 0.0 0.0 0.0 0.0 17.8 1.4 0.0 0.0 0.0 0.0 0.0 0.0 0.0 0.0 2.6 0.3 0.4 0.2 0.0 0.0 0.1 0.4 1.7 3.9 0.0 0.0 0.0 1.8 6.2 0.4 8.6 3.9 2.1 3.8 0.2 0.1 0.6 0.3 0.0
0.0 0.0 0.0 0.0 0.0 0.0 0.0 0.0 0.0 0.0 31.2 0.2 0.5 0.0 0.0 0.0 0.0 0.0 0.0 0.0 3.4 1.1 0.9 0.5 0.0 1.2 1.7 0.0 0.6 2.0 0.0 0.3 0.0 1.2 3.1 3.1 10.7 2.5 1.8 1.6 0.0 0.8 1.0 0.3 0.0
0.0 0.0 0.0 0.0 0.0 0.0 0.0 0.0 0.0 28.9 28.1 0.5 0.2 0.5 0.5 0.1 0.0 0.0 0.0 0.0 0.0 5.1 2.5 0.2 0.0 0.0 0.6 0.0 0.0 0.0 1.6 1.0 0.2 7.1 20.0 4.4 4.1 1.9 1.9 2.5 0.5 1.2 1.4 0.5 0.1
0.0 0.0 0.0 0.0 0.0 0.0 0.0 0.0 40.9 31.8 0.0 0.6 0.7 0.2 0.7 2.1 0.8 0.3 6.8 8.5 6.9 14.5 10.1 1.2 0.0 0.0 0.0 1.0 0.1 1.6 8.6 24.4 24.5 25.4 18.7 2.1 3.5 2.9 2.4 2.1 3.9 5.6 5.4 3.5 1.1
0.0 0.0 0.0 0.0 0.0 0.0 0.0 23.3 44.5 3.8 0.4 0.2 0.3 0.8 2.4 2.0 1.9 1.2 2.2 4.7 5.0 6.1 12.6 6.5 2.9 0.1 0.0 0.0 3.4 4.5 7.8 15.4 12.4 7.8 4.2 0.8 5.8 2.6 1.2 1.6 4.7 6.0 6.7 2.3 1.1
0.0 0.0 0.0 0.0 0.0 0.0 7.7 47.8 18.8 1.3 1.0 1.2 0.9 2.7 2.1 3.6 5.5 3.6 1.2 3.1 3.3 8.2 16.2 13.3 1.8 0.1 0.0 0.0 0.2 4.4 11.5 3.2 4.9 2.6 2.9 2.7 1.0 1.5 0.6 0.6 1.5 2.9 6.3 6.5 3.1
0.0 0.0 0.0 0.0 0.0 0.0 33.4 28.4 2.6 0.9 0.8 1.6 2.9 2.1 4.7 3.8 5.4 9.3 5.8 4.6 5.9 3.7 9.6 13.9 9.7 0.4 0.9 0.0 0.0 2.6 1.8 7.0 13.7 15.4 7.9 1.8 1.0 1.6 1.0 1.0 1.3 2.5 5.6 7.7 4.3
0.0 5.2 0.0 0.0 0.0 5.3 34.2 10.1 0.8 0.2 1.2 3.4 3.2 3.5 2.4 7.3 6.5 9.3 12.3 4.0 5.1 4.8 7.5 16.3 15.2 5.9 0.8 3.5 1.3 2.9 9.1 6.1 10.6 8.8 6.4 3.4 2.1 4.0 4.4 4.3 3.5 4.7 7.2 10.6 7.4
0.0 23.3 0.0 0.0 17.4 30.2 14.4 2.1 0.4 0.2 0.4 0.9 1.4 2.0 1.6 2.8 8.8 7.7 3.0 8.1 1.3 3.5 6.9 9.0 17.9 12.8 3.3 0.6 1.2 0.9 6.4 5.6 11.8 6.8 6.0 4.7 2.2 3.7 4.1 4.5 4.3 5.9 7.0 12.2 11.9
16.1 4.6 0.0 0.0 31.1 17.0 3.6 2.0 2.1 0.8 0.7 1.4 1.8 2.1 1.1 2.1 8.9 6.4 4.5 0.3 3.3 6.2 10.4 10.9 17.0 15.0 11.9 6.5 0.4 4.9 2.1 4.5 5.4 7.3 4.7 6.1 2.1 1.7 2.5 3.2 3.6 7.2 6.6 11.2 11.0
18.8 22.0 14.6 13.4 10.4 4.8 5.8 3.2 3.8 0.4 0.3 0.8 1.1 1.6 4.9 2.6 2.8 4.5 2.1 2.4 0.2 5.3 0.6 5.5 10.4 11.1 8.5 11.5 12.1 10.3 3.4 2.7 4.8 6.4 6.3 3.5 1.5 0.7 0.9 1.9 2.0 4.9 7.9 11.0 12.3
14.1 24.7 0.5 18.2 14.7 6.0 10.9 7.8 2.6 1.8 2.1 2.2 2.6 0.9 4.3 8.2 4.5 4.0 1.5 0.8 3.6 0.0 3.5 11.2 8.9 4.5 0.6 1.1 3.3 5.0 6.7 5.6 5.6 2.5 5.3 2.6 2.8 1.8 2.2 3.0 4.4 5.9 7.9 9.1 9.3
13.5 11.6 5.2 9.0 1.3 6.9 11.3 8.1 1.4 2.2 4.6 2.1 2.4 1.1 1.3 4.1 3.0 5.9 7.1 4.9 8.4 8.2 11.2 15.3 6.7 2.9 2.6 1.1 1.4 2.4 1.8 3.9 3.9 1.2 1.2 1.6 1.9 1.5 1.8 1.3 3.3 6.0 7.3 8.2 8.2
1.1 0.0 11.0 10.6 6.5 11.8 11.7 4.7 4.7 5.0 1.8 0.2 0.6 3.0 1.7 1.0 0.0 0.0 0.0 3.1 5.5 10.9 10.5 12.8 9.5 6.3 6.7 1.4 4.9 6.0 6.3 4.3 2.2 3.4 2.0 2.2 2.4 1.0 0.6 1.6 4.2 6.8 8.8 9.0 8.6